Regional Weather Roundup
Issued by NWS State College, PA

Home | Current Version | Previous Version | Text Only | Print | Product List | Glossary Off
Versions: 1 2 3 4 5 6 7 8 9 10 11 12 13 14 15 16 17 18 19 20 21 22 23 24 25 26 27 28 29 30 31 32 33 34 35 36 37 38 39 40 41 42 43 44 45 46 47 48 49 50

000
ASUS41 KCTP 251003
RWRCTP

REGIONAL WEATHER ROUNDUP
NATIONAL WEATHER SERVICE STATE COLLEGE PA
600 AM EDT SUN SEP 25 2016

Note: "fair" indicates few or no clouds below 12,000 feet with no
significant weather and/or obstructions to visibility.

* = STATION THAT DOES NOT REPORT PRECIPITATION /E.G. RAIN...SNOW...ETC/
    THUNDER OR FOG.

PAZ002>004-007>009-013>016-020>023-029>032-251100-
WESTERN PENNSYLVANIA

CITY           SKY/WX    TMP DP  RH WIND       PRES   REMARKS
ERIE           CLEAR     49  39  68 SE6       30.23S
MEADVILLE      CLEAR     45  40  82 E5        30.22F
FRANKLIN*        N/A     45  39  81 NE5       30.23F
NEW CASTLE     FAIR      47  45  93 E5        30.22R
BEAVER COUNTY  NOT AVBL
BUTLER*        CLEAR     46  43  87 NE6       30.22S
PITTSBURGH INT CLEAR     52  47  83 NE5       30.18S
PITTSBURGH     CLEAR     51  45  79 N5        30.19R
INDIANA*       CLEAR     48  45  87 E6        30.24R
LATROBE        CLEAR     46  46 100 CALM      30.20S
WASHINGTON CO* CLEAR     45  43  93 CALM      30.19R
$$

PAZ004>006-010>012-017>019-024>028-033>037-041-042-045-046-049>053-251100-
CENTRAL PENNSYLVANIA

CITY           SKY/WX    TMP DP  RH WIND       PRES   REMARKS
BRADFORD       CLEAR     35  34  96 CALM      30.24R
DUBOIS         CLEAR     43  39  86 E5        30.22R
CLEARFIELD     CLEAR     42  41  96 N3        30.24S
JOHNSTOWN      CLEAR     46  44  93 NE6       30.21R
ALTOONA        CLEAR     45  44  97 CALM      30.23R
STATE COLLEGE  PTCLDY    43  43 100 CALM      30.23S
WILLIAMSPORT   CLEAR     45  42  89 CALM      30.22S
SELINSGROVE    CLEAR     42  42 100 CALM      30.24R
FT INDIANTOWN  CLEAR     44  42  93 CALM      30.22R
CAPITAL CITY   CLEAR     48  45  89 SW5       30.22R
HARRISBURG     CLEAR     50  45  83 NW3       30.22R
YORK           CLEAR     43  43 100 CALM      30.22R
$$

PAZ038>040-043-044-047-048-054-055-060>062-067>071-251100-
EASTERN PENNSYLVANIA

CITY           SKY/WX    TMP DP  RH WIND       PRES   REMARKS
SCRANTON       CLEAR     43  40  89 E5        30.21S
MOUNT POCONO   CLEAR     38  35  89 CALM      30.19S
ALLENTOWN      CLEAR     45  40  82 CALM      30.21R
QUAKERTOWN*    SUNNY     41  39  93 CALM      30.21S
READING        CLEAR     47  42  83 CALM      30.22R
LANCASTER      CLEAR     51  44  77 W5        30.22R
COATESVILLE    SUNNY     50  43  76 N3        30.21S
POTTSTOWN      CLEAR     47  42  83 CALM      30.22R
BLUE BELL      CLEAR     46  41  81 CALM      30.20R
DOYLESTOWN     CLEAR     50  43  77 NE3       30.19R
WILLOW GROVE   NOT AVBL
NORTH PHILA    CLEAR     52  42  69 N10       30.21R
PHILADELPHIA   CLEAR     55  41  59 N10       30.19R
$$



USA.gov is the U.S. government's official web portal to all federal, state and local government web resources and services.